User: anonymous   Login
Location: Godiavel Galaoual
(15.2485°N, 12.6604°W)
Time: 00:10:10
(UTC+00:00)
Language:

NANOSAT C BR1 - Orbit

View from above orbital plane
View from above orbital plane
View from above satellite
View from above satellite

Ground track
Ground track

The orbit data is extracted from the following two-line orbital elements,

1 40024U 14033Q   21216.36712201  .00000554  00000-0  62591-4 0  9996
2 40024  97.9518 151.9280 0012677  18.9355 341.2331 14.90498053386738
Epoch (UTC): 04 August 2021 08:48:39
Eccentricity: 0.0012677
inclination: 97.9518°
perigee height: 587 km
apogee height: 605 km
right ascension of ascending node: 151.9280°
argument of perigee: 18.9355°
revolutions per day: 14.90498053
mean anomaly at epoch: 341.2331°
orbit number at epoch: 38673

The dashed part of the orbit path shows where the satellite is in the earth's shadow,  

DLR